N1YZ Weather Reports


time (UTC)temp
F
wind
direction
speed
knots
gust
knots
rain 1hr
in
rain 24hr
in
rain mn
in
humidity
%
barometer
mb
20260901030518 80 7 0.0 0.0 0.00 0.00 0.00 84 1037.8
20260901030013 80 7 0.0 0.0 0.00 0.00 0.00 83 1037.9
20260901025513 80 7 0.0 0.0 0.00 0.00 0.00 82 1038.0
20260901025007 81 7 0.0 0.0 0.00 0.00 0.00 82 1038.0
20260901024502 82 7 0.0 0.0 0.00 0.00 0.00 80 1038.0
20260901024001 82 7 0.0 0.0 0.00 0.00 0.00 79 1037.9
20260901023455 82 7 0.0 0.0 0.00 0.00 0.00 79 1038.2
20260901022950 82 347 0.0 0.0 0.00 0.00 0.00 80 1037.8
20260901022446 82 346 0.0 0.0 0.00 0.00 0.00 80 1038.0
20260901021940 82 347 0.0 0.0 0.00 0.00 0.00 78 1037.9
20260901021436 82 347 0.0 0.0 0.00 0.00 0.00 78 1038.0
20260901020931 82 347 0.0 0.0 0.00 0.00 0.00 78 1037.8
20260901020427 83 347 0.0 0.0 0.00 0.00 0.00 77 1037.7
20260901015925 83 347 0.0 0.0 0.00 0.00 0.00 76 1037.7
20260901015423 83 347 0.0 0.0 0.00 0.00 0.00 76 1037.7
20260901014921 84 347 0.0 0.0 0.00 0.00 0.00 75 1037.7
20260901014418 84 347 0.0 0.0 0.00 0.00 0.00 75 1037.7
20260901013913 84 347 0.0 0.0 0.00 0.00 0.00 75 1037.6
20260901013409 84 347 0.0 0.0 0.00 0.00 0.00 75 1037.3
20260901012904 84 347 0.0 0.0 0.00 0.00 0.00 74 1037.2
20260901012359 84 347 0.0 0.0 0.00 0.00 0.00 74 1037.2
20260901011854 84 347 0.0 0.0 0.00 0.00 0.00 74 1037.2
20260901011350 84 347 0.0 0.0 0.00 0.00 0.00 74 1037.2
20260901010849 84 347 0.0 0.0 0.00 0.00 0.00 73 1037.2
20260901010343 84 347 0.0 0.0 0.00 0.00 0.00 73 1036.9
20260901005842 85 347 0.0 0.0 0.00 0.00 0.00 72 1037.1
20260901005337 85 347 0.0 0.0 0.00 0.00 0.00 72 1037.0
20260901004833 85 348 0.0 0.0 0.00 0.00 0.00 71 1036.9
20260901004326 85 348 0.0 0.0 0.00 0.00 0.00 71 1036.8
20260901003820 86 348 0.0 0.0 0.00 0.00 0.00 70 1036.8
20260901003315 86 348 0.0 0.0 0.00 0.00 0.00 69 1036.9
20260901002808 86 348 0.0 0.0 0.00 0.00 0.00 69 1036.8
20260901002305 87 347 0.0 0.0 0.00 0.00 0.00 68 1036.8
20260901001758 87 348 0.0 0.0 0.00 0.00 0.00 67 1036.8
20260901001254 87 348 0.0 0.0 0.00 0.00 0.00 67 1036.7
20260901000749 87 2 0.0 0.0 0.00 0.00 0.00 67 1036.9
20260901000244 87 27 0.0 0.0 0.00 0.00 0.00 67 1036.9
20260831235742 87 342 0.0 0.0 0.00 0.00 0.00 67 1036.8
20260831235239 87 22 0.0 0.0 0.00 0.00 0.00 67 1036.7
20260831234739 88 6 0.0 0.0 0.00 0.00 0.00 66 1037.1
20260831234238 88 5 0.0 0.0 0.00 0.00 0.00 66 1036.8
20260831233734 88 350 0.0 0.0 0.00 0.00 0.00 66 1036.9
20260831233229 88 351 0.0 0.0 0.00 0.00 0.00 65 1036.8
20260831232724 88 350 0.0 0.0 0.00 0.00 0.00 65 1036.8
20260831232220 88 351 0.0 0.0 0.00 0.00 0.00 65 1036.8
20260831231716 88 28 0.0 0.0 0.00 0.00 0.00 64 1036.8
20260831231213 88 352 0.0 0.0 0.00 0.00 0.00 64 1036.9
20260831230712 89 2 0.0 0.0 0.00 0.00 0.00 64 1037.1
20260831230208 89 48 0.0 0.0 0.00 0.00 0.00 64 1037.2
20260831225707 89 19 0.0 0.0 0.00 0.00 0.00 63 1037.1
20260831225202 89 11 0.0 0.0 0.00 0.00 0.00 62 1037.0
20260831224656 89 25 0.0 0.0 0.00 0.00 0.00 61 1036.9
20260831224151 89 12 0.0 0.0 0.00 0.00 0.00 61 1037.0
20260831223647 89 30 0.0 0.0 0.00 0.00 0.00 61 1036.9
20260831223144 89 0 0.0 0.0 0.00 0.00 0.00 63 1036.7
20260831222639 90 353 0.0 0.0 0.00 0.00 0.00 64 1036.7
20260831222134 90 2 0.0 0.0 0.00 0.00 0.00 63 1036.8
20260831221630 89 20 0.0 0.0 0.00 0.00 0.00 63 1036.9
20260831221125 89 16 0.0 0.0 0.00 0.00 0.00 64 1036.8
20260831220620 90 1 0.0 0.0 0.00 0.00 0.00 64 1036.8
20260831220115 90 339 0.9 1.7 0.00 0.00 0.00 63 1037.1
20260831215610 90 347 0.0 0.0 0.00 0.00 0.00 63 1036.8
20260831215106 90 358 0.0 0.0 0.00 0.00 0.00 63 1037.0
20260831214603 91 32 0.0 0.0 0.00 0.00 0.00 61 1037.0
20260831214059 90 10 0.0 0.0 0.00 0.00 0.00 62 1037.2
20260831213556 91 26 0.0 0.0 0.00 0.00 0.00 60 1037.1
20260831213052 91 19 0.0 0.0 0.00 0.00 0.00 61 1037.0
20260831212547 91 21 0.0 0.0 0.00 0.00 0.00 61 1037.3
20260831212043 91 350 0.0 0.9 0.00 0.00 0.00 60 1037.3
20260831211537 91 17 0.0 0.0 0.00 0.00 0.00 62 1037.3
20260831211036 90 43 0.0 0.0 0.00 0.00 0.00 61 1037.4
20260831210532 89 143 0.9 0.9 0.00 0.00 0.00 62 1037.6
20260831210028 89 20 0.0 0.9 0.00 0.00 0.00 62 1037.3
20260831205522 91 27 0.9 0.9 0.00 0.00 0.00 63 1037.4
20260831205019 92 358 0.0 0.0 0.00 0.00 0.00 62 1037.4
20260831204518 92 3 0.0 0.9 0.00 0.00 0.00 61 1037.5
20260831204016 92 61 0.0 0.0 0.00 0.00 0.00 58 1037.3
20260831203511 91 108 0.9 1.7 0.00 0.00 0.00 59 1037.5
20260831203010 90 358 0.0 0.0 0.00 0.00 0.00 62 1037.4
20260831202504 90 359 1.7 1.7 0.00 0.00 0.00 63 1037.5
20260831202004 90 24 0.0 0.0 0.00 0.00 0.00 62 1037.3
20260831201502 92 27 0.0 0.0 0.00 0.00 0.00 60 1037.5
20260831200958 92 11 0.0 0.0 0.00 0.00 0.00 60 1037.8
20260831200454 91 13 0.0 0.0 0.00 0.00 0.00 58 1037.8
20260831195948 90 110 0.9 0.9 0.00 0.00 0.00 58 1037.9
20260831195444 91 4 0.9 0.9 0.00 0.00 0.00 60 1038.1
20260831194938 91 10 0.0 0.9 0.00 0.00 0.00 59 1038.0
20260831194434 91 25 0.0 0.0 0.00 0.00 0.00 61 1038.0
20260831193934 91 351 0.0 0.0 0.00 0.00 0.00 58 1038.0
20260831193429 91 18 0.0 0.0 0.00 0.00 0.00 60 1038.3
20260831192924 91 4 0.0 0.0 0.00 0.00 0.00 62 1038.3
20260831192419 90 20 0.0 0.0 0.00 0.00 0.00 64 1038.2
20260831191914 90 19 0.0 0.0 0.00 0.00 0.00 63 1038.2
20260831191410 91 41 0.0 0.0 0.00 0.00 0.00 63 1038.0
20260831190907 91 341 1.7 1.7 0.00 0.00 0.00 64 1038.2
20260831190406 91 17 0.0 0.0 0.00 0.00 0.00 61 1038.2
20260831185905 93 4 0.0 0.0 0.00 0.00 0.00 58 1038.2
20260831185402 92 5 0.0 0.0 0.00 0.00 0.00 60 1038.5
20260831184901 93 15 0.9 0.9 0.00 0.00 0.00 63 1038.5
20260831184355 93 15 0.0 0.0 0.00 0.00 0.00 60 1038.7
20260831183850 92 61 0.0 0.0 0.00 0.00 0.00 62 1038.7
20260831183345 91 32 0.9 0.9 0.00 0.00 0.00 61 1038.8
20260831182844 88 23 0.0 0.0 0.00 0.00 0.00 67 1038.9
20260831182339 88 352 0.0 0.0 0.00 0.00 0.00 67 1039.0
20260831181834 90 350 0.0 0.0 0.00 0.00 0.00 68 1039.0
20260831181330 91 19 0.0 0.0 0.00 0.00 0.00 62 1039.1
20260831180824 90 188 1.7 1.7 0.00 0.00 0.00 63 1039.2
20260831180319 89 342 0.0 0.0 0.00 0.00 0.00 69 1039.3
20260831175818 89 22 0.0 0.0 0.00 0.00 0.00 66 1039.1
20260831175315 88 26 0.0 0.0 0.00 0.00 0.00 66 1039.3
20260831174810 89 10 0.0 0.0 0.00 0.00 0.00 66 1039.3
20260831174306 89 3 0.0 0.0 0.00 0.00 0.00 65 1039.5
20260831173805 88 20 0.0 0.0 0.00 0.00 0.00 70 1039.5
20260831173259 87 16 0.0 0.0 0.00 0.00 0.00 70 1039.7
20260831172754 88 35 0.0 0.0 0.00 0.00 0.00 69 1039.8
20260831172249 87 16 0.0 0.0 0.00 0.00 0.00 72 1039.6
20260831171750 89 2 0.0 0.9 0.00 0.00 0.00 69 1039.6
20260831171247 90 351 0.0 0.0 0.00 0.00 0.00 69 1039.7
20260831170744 90 42 0.0 0.0 0.00 0.00 0.00 66 1039.7
20260831170239 89 348 0.0 0.0 0.00 0.00 0.00 68 1039.8
20260831165736 89 16 0.0 0.0 0.00 0.00 0.00 67 1039.6
20260831165232 89 36 0.0 0.0 0.00 0.00 0.00 71 1039.7
20260831164727 89 343 0.9 0.9 0.00 0.00 0.00 70 1039.8
20260831164224 88 18 0.0 0.0 0.00 0.00 0.00 69 1039.8
20260831163718 87 205 0.0 0.0 0.00 0.00 0.00 70 1040.2
20260831163214 87 110 0.0 0.0 0.00 0.00 0.00 68 1040.2
20260831162713 87 355 0.9 1.7 0.00 0.00 0.00 73 1040.3
20260831162212 87 355 0.0 0.0 0.00 0.00 0.00 74 1040.2
20260831161707 87 32 0.0 0.0 0.00 0.00 0.00 74 1040.1
20260831161203 86 334 0.9 1.7 0.00 0.00 0.00 77 1040.3
20260831160703 86 353 0.0 0.0 0.00 0.00 0.00 74 1040.3
20260831160158 86 85 0.9 0.9 0.00 0.00 0.00 76 1040.5
20260831155657 86 6 0.0 0.0 0.00 0.00 0.00 77 1040.4
20260831155154 86 21 0.0 0.0 0.00 0.00 0.00 77 1040.3
20260831154649 86 3 0.0 0.0 0.00 0.00 0.00 76 1040.5
20260831154144 86 352 0.0 0.0 0.00 0.00 0.00 77 1040.4
20260831153643 85 16 0.0 0.0 0.00 0.00 0.00 79 1040.2
20260831153140 86 348 0.0 0.0 0.00 0.00 0.00 75 1040.2
20260831152635 86 322 0.0 0.0 0.00 0.00 0.00 75 1040.3
20260831152131 86 359 0.0 0.0 0.00 0.00 0.00 75 1040.2
20260831151630 86 19 0.0 0.0 0.00 0.00 0.00 75 1040.4
20260831151125 86 5 0.0 0.0 0.00 0.00 0.00 75 1040.5
20260831150620 86 39 0.0 0.0 0.00 0.00 0.00 76 1040.3
20260831150116 85 14 0.0 0.0 0.00 0.00 0.00 75 1040.3
20260831145609 86 319 1.7 1.7 0.00 0.00 0.00 77 1040.5
20260831145106 87 353 0.0 0.0 0.00 0.00 0.00 74 1040.3
20260831144602 87 359 0.0 0.0 0.00 0.00 0.00 74 1040.3
20260831144057 86 345 0.0 0.0 0.00 0.00 0.00 77 1040.3
20260831143551 87 330 0.0 0.0 0.00 0.00 0.00 74 1040.3
20260831143047 86 2 0.0 0.0 0.00 0.00 0.00 77 1040.5
20260831142543 85 0 0.0 0.0 0.00 0.00 0.00 78 1040.3
20260831142044 84 6 0.0 0.0 0.00 0.00 0.00 81 1040.4
20260831141543 82 11 0.0 0.0 0.00 0.00 0.00 84 1040.3
20260831141038 81 354 0.0 0.0 0.00 0.00 0.00 86 1040.5
20260831140538 80 353 0.0 0.0 0.00 0.00 0.00 87 1040.5
20260831140037 80 348 0.0 0.0 0.00 0.00 0.00 88 1040.6
20260831135535 79 355 0.0 0.0 0.00 0.00 0.00 88 1040.6
20260831135030 79 10 0.0 0.0 0.00 0.00 0.00 89 1040.4
20260831134526 79 358 0.0 0.0 0.00 0.00 0.00 90 1040.6
20260831134021 78 345 0.0 0.0 0.00 0.00 0.00 90 1040.6
20260831133515 78 334 0.0 0.0 0.00 0.00 0.00 91 1040.4
20260831133010 77 354 0.0 0.0 0.00 0.00 0.00 92 1040.4
20260831132507 77 303 0.0 0.0 0.00 0.00 0.00 92 1040.3
20260831132005 77 3 0.0 0.0 0.00 0.00 0.00 93 1040.4
20260831131500 76 352 0.0 0.0 0.00 0.00 0.00 94 1040.7
20260831130956 76 98 0.0 0.0 0.00 0.00 0.00 95 1040.6
20260831130451 75 41 0.0 0.0 0.00 0.00 0.00 96 1040.5
20260831125950 75 183 0.0 0.0 0.00 0.00 0.00 96 1040.4
20260831125445 75 189 0.0 0.0 0.00 0.00 0.00 97 1040.3
20260831124941 75 177 0.0 0.0 0.00 0.00 0.00 97 1040.2
20260831124437 74 181 0.0 0.0 0.00 0.00 0.00 97 1040.3
20260831123933 74 181 0.0 0.0 0.00 0.00 0.00 98 1039.9
20260831123431 74 190 0.9 1.7 0.00 0.00 0.00 98 1039.9
20260831122926 74 188 0.9 0.9 0.00 0.00 0.00 98 1039.8
20260831122421 73 178 1.7 1.7 0.00 0.00 0.00 98 1039.9
20260831121916 73 184 0.9 1.7 0.00 0.00 0.00 98 1039.7
20260831121412 73 189 1.7 1.7 0.00 0.00 0.00 98 1039.8
20260831120908 73 174 0.0 0.0 0.00 0.00 0.00 98 1039.5
20260831120402 73 73 0.0 0.0 0.00 0.00 0.00 98 1039.4
20260831115856 73 114 0.0 0.0 0.00 0.00 0.00 98 1039.4
20260831115353 73 61 0.0 0.0 0.00 0.00 0.00 98 1039.3
20260831114852 73 40 0.0 0.0 0.00 0.00 0.00 98 1039.3
20260831114351 73 44 0.0 0.0 0.00 0.00 0.00 98 1039.3
20260831113848 73 65 0.0 0.0 0.00 0.00 0.00 98 1039.3
20260831113347 73 12 0.0 0.0 0.00 0.00 0.00 97 1039.2
20260831112848 73 14 0.0 0.0 0.00 0.00 0.00 97 1039.1
20260831112342 73 40 0.0 0.0 0.00 0.00 0.00 97 1039.1
20260831111838 73 40 0.0 0.0 0.00 0.00 0.00 97 1038.9
20260831111334 73 41 0.0 0.0 0.00 0.00 0.00 97 1039.0
20260831110829 73 52 0.0 0.0 0.00 0.00 0.00 97 1038.8
20260831110324 74 1 0.0 0.0 0.00 0.00 0.00 96 1038.8
20260831105822 74 356 0.0 0.0 0.00 0.00 0.00 96 1038.7
20260831105318 74 352 0.0 0.0 0.00 0.00 0.00 96 1038.7
20260831104813 74 14 0.0 0.0 0.00 0.00 0.00 96 1038.9
20260831104309 74 9 0.0 0.0 0.00 0.00 0.00 95 1038.7
20260831103804 74 12 0.0 0.0 0.00 0.00 0.00 95 1038.7
20260831103300 75 264 0.9 0.9 0.00 0.00 0.00 95 1038.6
20260831102759 75 346 0.0 0.0 0.00 0.00 0.00 94 1038.8
20260831102254 75 339 0.0 0.0 0.00 0.00 0.00 94 1038.6
20260831101750 74 321 0.0 0.0 0.00 0.00 0.00 96 1038.5
20260831101245 74 357 0.0 0.0 0.00 0.00 0.00 96 1038.6
20260831100741 74 347 0.0 0.0 0.00 0.00 0.00 96 1038.7
20260831100237 74 290 0.0 0.0 0.00 0.00 0.00 96 1038.7
20260831095736 74 322 0.0 0.0 0.00 0.00 0.00 96 1038.4
20260831095230 74 357 0.0 0.0 0.00 0.00 0.00 95 1038.5
20260831094725 74 6 0.0 0.0 0.00 0.00 0.00 95 1038.5
20260831094221 74 6 0.0 0.0 0.00 0.00 0.00 95 1038.6
20260831093717 74 6 0.0 0.0 0.00 0.00 0.00 94 1038.5
20260831093212 75 6 0.0 0.0 0.00 0.00 0.00 94 1038.5
20260831092709 75 6 0.0 0.0 0.00 0.00 0.00 94 1038.3
20260831092204 75 5 0.0 0.0 0.00 0.00 0.00 94 1038.4
20260831091703 75 23 0.0 0.0 0.00 0.00 0.00 94 1038.4
20260831091159 75 11 0.0 0.0 0.00 0.00 0.00 93 1038.5
20260831090654 75 9 0.0 0.0 0.00 0.00 0.00 93 1038.6
20260831090150 75 8 0.0 0.0 0.00 0.00 0.00 93 1038.4
20260831085645 75 27 0.0 0.0 0.00 0.00 0.00 93 1038.2
20260831085140 75 28 0.0 0.0 0.00 0.00 0.00 93 1038.3
20260831084636 75 28 0.0 0.0 0.00 0.00 0.00 93 1038.2
20260831084132 75 0 0.0 0.0 0.00 0.00 0.00 93 1038.1
20260831083628 75 359 0.0 0.0 0.00 0.00 0.00 93 1038.1
20260831083123 75 359 0.0 0.0 0.00 0.00 0.00 92 1038.1
20260831082621 75 359 0.0 0.0 0.00 0.00 0.00 92 1038.0
20260831082117 75 359 0.0 0.0 0.00 0.00 0.00 92 1038.0
20260831081612 75 359 0.0 0.0 0.00 0.00 0.00 91 1037.9
20260831081108 75 26 0.0 0.0 0.00 0.00 0.00 91 1037.9
20260831080603 75 26 0.0 0.0 0.00 0.00 0.00 91 1038.1
20260831080058 76 3 0.0 0.0 0.00 0.00 0.00 91 1037.8
20260831075554 76 271 0.9 0.9 0.00 0.00 0.00 91 1038.0
20260831075049 76 11 0.0 0.0 0.00 0.00 0.00 90 1037.9
20260831074548 76 15 0.0 0.0 0.00 0.00 0.00 90 1037.9
20260831074043 77 12 0.0 0.0 0.00 0.00 0.00 89 1037.8
20260831073538 77 12 0.0 0.0 0.00 0.00 0.00 89 1037.9
20260831073038 77 10 0.0 0.0 0.00 0.00 0.00 89 1037.8
20260831072533 76 315 0.0 0.0 0.00 0.00 0.00 90 1037.8
20260831072030 76 189 0.0 0.0 0.00 0.00 0.00 90 1038.0
20260831071528 76 185 0.9 0.9 0.00 0.00 0.00 90 1037.8
20260831071024 77 114 0.9 0.9 0.00 0.00 0.00 89 1038.1
20260831070522 77 266 0.0 0.0 0.00 0.00 0.00 89 1037.9
20260831070018 77 276 0.0 0.0 0.00 0.00 0.00 89 1037.8
20260831065515 77 325 0.0 0.0 0.00 0.00 0.00 88 1037.8
20260831065010 77 358 0.0 0.0 0.00 0.00 0.00 87 1037.7
20260831064505 77 358 0.0 0.0 0.00 0.00 0.00 87 1037.8
20260831064001 78 348 0.0 0.0 0.00 0.00 0.00 87 1038.0
20260831063456 78 354 0.0 0.0 0.00 0.00 0.00 86 1037.9
20260831062955 78 359 0.0 0.0 0.00 0.00 0.00 87 1037.9
20260831062451 78 2 0.0 0.0 0.00 0.00 0.00 86 1037.8
20260831061950 78 4 0.0 0.0 0.00 0.00 0.00 86 1037.6
20260831061448 78 357 0.0 0.0 0.00 0.00 0.00 85 1037.6
20260831060945 78 5 0.0 0.0 0.00 0.00 0.00 85 1037.8
20260831060440 78 5 0.0 0.0 0.00 0.00 0.00 85 1037.7
20260831055939 78 354 0.0 0.0 0.00 0.00 0.00 85 1037.6
20260831055434 78 14 0.0 0.0 0.00 0.00 0.00 85 1037.9
20260831054930 78 354 0.0 0.0 0.00 0.00 0.00 85 1037.9
20260831054430 79 353 0.0 0.0 0.00 0.00 0.00 84 1038.0
20260831053924 78 357 0.0 0.0 0.00 0.00 0.00 85 1038.1
20260831053422 78 357 0.0 0.0 0.00 0.00 0.00 85 1038.1
20260831052917 78 343 0.0 0.0 0.00 0.00 0.00 84 1038.1
20260831052416 78 343 0.0 0.0 0.00 0.00 0.00 84 1038.1
20260831051914 79 343 0.0 0.0 0.00 0.00 0.00 84 1038.1
20260831051413 79 343 0.0 0.0 0.00 0.00 0.00 85 1038.2
20260831050908 78 343 0.0 0.0 0.00 0.00 0.00 84 1038.2
20260831050402 79 343 0.0 0.0 0.00 0.00 0.00 85 1038.4
20260831045856 79 343 0.0 0.0 0.00 0.00 0.00 85 1038.4
20260831045355 79 347 0.0 0.0 0.00 0.00 0.00 84 1038.3
20260831044850 79 346 0.0 0.0 0.00 0.00 0.00 84 1038.3
20260831044345 79 348 0.0 0.0 0.00 0.00 0.00 84 1038.2
20260831043841 79 348 0.0 0.0 0.00 0.00 0.00 85 1038.3
20260831043340 79 20 0.0 0.0 0.00 0.00 0.00 84 1038.2
20260831042835 79 16 0.0 0.0 0.00 0.00 0.00 83 1038.2
20260831042335 79 16 0.0 0.0 0.00 0.00 0.00 83 1038.2
20260831041831 79 17 0.0 0.0 0.00 0.00 0.00 83 1038.2
20260831041330 79 17 0.0 0.0 0.00 0.00 0.00 83 1038.2
20260831040825 79 16 0.0 0.0 0.00 0.00 0.00 82 1038.0
20260831040324 79 16 0.0 0.0 0.00 0.00 0.00 82 1038.0
20260831035823 79 16 0.0 0.0 0.00 0.00 0.00 82 1037.9
20260831035321 79 16 0.0 0.0 0.00 0.00 0.00 82 1038.0
20260831034816 79 14 0.0 0.0 0.00 0.00 0.00 82 1038.1
20260831034312 79 3 0.0 0.0 0.00 0.00 0.00 83 1038.1
20260831033807 80 349 0.0 0.0 0.00 0.00 0.00 83 1038.2
20260831033307 80 341 0.0 0.0 0.00 0.00 0.00 82 1038.1
20260831032803 80 350 0.0 0.0 0.00 0.00 0.00 83 1038.4
20260831032257 79 351 0.0 0.0 0.00 0.00 0.00 82 1038.2
20260831031752 79 351 0.0 0.0 0.00 0.00 0.00 82 1038.3
20260831031251 79 351 0.0 0.0 0.00 0.00 0.00 82 1038.0
20260831030746 79 351 0.0 0.0 0.00 0.00 0.00 82 1038.1